Location: Alafon
(8.4500°N, 4.2333°E)
Time: 22:50:30
(UTC+00:00)

Vanguard 2 - Pass Details

Date: 09 August 2021
Orbit: 553 x 2937 km, 32.9° (Epoch: 26 September)

Event Time Altitude Azimuth Distance (km) Brightness Sun altitude
Rises 06:41:34 0° 328° (NNW) 2,941 10.3 14.9°
Reaches altitude 10° 06:44:08 10° 346° (NNW) 2,215 10.0 15.6°
Maximum altitude 06:48:02 21° 36° (NE) 1,890 10.5 16.5°
Drops below altitude 10° 06:53:16 10° 83° (E) 3,095 13.0 17.8°
Sets 06:57:40 0° 97° (E) 4,537 12.8 18.8°
